Stations météo

réclame
Mon MeteoGroup
Visby Flygplats, Suède (2590): Température de l'air & dewpoint: 19.02.2018 00:00:00 - 25.02.2018 00:00:00 (CET)Visby Flygplats, Suède (2590): Vitesse du vent & gusts: 19.02.2018 00:00:00 - 25.02.2018 00:00:00 (CET)Visby Flygplats, Suède (2590): Direction du vent: 19.02.2018 00:00:00 - 25.02.2018 00:00:00 (CET)Visby Flygplats, Suède (2590): reduced air pressure: 19.02.2018 00:00:00 - 25.02.2018 00:00:00 (CET)Visby Flygplats, Suède (2590): visibility: 19.02.2018 00:00:00 - 25.02.2018 00:00:00 (CET)Visby Flygplats, Suède (2590): Quantités de précipitations: 19.02.2018 00:00:00 - 25.02.2018 00:00:00 (CET)
Date & Time tt [°C] td [°C] ff [km/h] ff [knt] fx [km/h] fx [knt] dd ppp [hPa] vv [km] rr [mm]
25.02.2018 00:00:00 -7,9 -10,3 4 2 7 4 E 1036,3 10 0,0
24.02.2018 23:00:00 -6,5 -9,5 11 6 25 14 NE 1036,4 10 0,0
24.02.2018 22:00:00 -5,7 -8,9 18 10 25 14 NNE 1036,4 10 0,1
24.02.2018 21:00:00 -5,7 -9,1 15 8 22 12 NE 1036,4 9 0,0
24.02.2018 20:00:00 -5,9 -8,6 11 6 18 10 NE 1036,5 10 0,0
24.02.2018 19:00:00 -5,9 -8,5 15 8 25 14 NE 1036,5 8 0,0
24.02.2018 18:00:00 -6,1 -8,2 13 7 22 12 NE 1036,7 8 0,0
24.02.2018 17:00:00 -5,5 -7,5 18 10 29 16 NNE 1036,6 5 0,3
24.02.2018 16:00:00 -5,6 -6,8 16 9 22 12 NE 1036,5 6 0,2
24.02.2018 15:00:00 -5,3 -6,7 16 9 25 14 NE 1036,7 4,0 0,1
24.02.2018 14:00:00 -5,2 -9,6 13 7 25 14 NE 1036,6 6 0,0
24.02.2018 13:00:00 -4,9 -7,3 13 7 22 12 NE 1036,7 10 0,1
24.02.2018 12:00:00 -5,5 -6,9 16 9 22 12 NE 1037,0 2,0 0,3
24.02.2018 11:00:00 -5,2 -6,6 15 8 22 12 ENE 1036,9 0,9 0,3
24.02.2018 10:00:00 -5,9 -8,2 15 8 18 10 ENE 1036,4 10 0,0
24.02.2018 09:00:00 -6,4 -8,1 13 7 18 10 NE 1036,2 10 0,0
24.02.2018 08:00:00 -7,7 -9,1 13 7 25 14 NE 1035,7 10 0,0
24.02.2018 07:00:00 -8,6 -9,7 11 6 18 10 ENE 1035,4 10 0,0
24.02.2018 06:00:00 -6,5 -7,6 13 7 18 10 ENE 1035,0 1,3 0,3
24.02.2018 05:00:00 -7,1 -8,5 11 6 18 10 ENE 1034,2 10 0,0
24.02.2018 04:00:00 -6,1 -7,3 22 12 32 18 NE 1033,5 9 0,7
24.02.2018 03:00:00 -6,5 -7,4 13 7 22 12 NNE 1033,0 10 0,1
24.02.2018 02:00:00 -7,2 -8,1 11 6 22 12 ENE 1032,8 10 0,0
24.02.2018 01:00:00 -6,2 -7,7 18 10 29 16 NE 1032,2 10 0,3
24.02.2018 00:00:00 -6,3 -7,8 18 10 29 16 ENE 1031,5 10 0,1
23.02.2018 23:00:00 -5,1 -8,3 16 9 25 14 NE 1031,2 10 0,0
23.02.2018 22:00:00 -5,1 -9,2 18 10 29 16 NE 1030,7 10 0,0
23.02.2018 21:00:00 -5,2 -6,7 22 12 29 16 NE 1030,1 3,0 0,2
23.02.2018 20:00:00 -4,9 -9,0 24 13 43 23 NE 1029,5 10 0,0
23.02.2018 19:00:00 -3,9 -9,3 28 15 40 21 NNE 1028,5 10 0,0
23.02.2018 18:00:00 -3,5 -9,5 24 13 36 19 NE 1027,9 10 0,0
23.02.2018 17:00:00 -3,4 -7,7 24 13 40 21 NE 1027,2 10 0,0
23.02.2018 16:00:00 -2,4 -6,6 24 13 40 21 NE 1026,5 10 0,0
23.02.2018 15:00:00 -2,0 -6,6 28 15 40 21 NNE 1026,0 10 0,0
23.02.2018 14:00:00 -1,8 -7,7 24 13 40 21 NNE 1025,7 10 0,0
23.02.2018 13:00:00 -1,9 -5,1 26 14 40 21 NNE 1025,6 10 0,0
23.02.2018 12:00:00 -1,5 -4,7 24 13 32 18 NNE 1025,5 10 0,0
23.02.2018 11:00:00 -1,0 -3,7 24 13 36 19 N 1025,1 10 0,0
23.02.2018 10:00:00 -1,0 -3,0 18 10 29 16 NNW 1025,1 10 0,0
23.02.2018 09:00:00 -1,3 -3,0 16 9 22 12 NNW 1025,1 10 0,0
23.02.2018 08:00:00 -1,6 -3,6 16 9 25 14 WNW 1025,1 10 0,0
23.02.2018 07:00:00 -1,6 -4,4 18 10 25 14 WNW 1025,1 10 0,0
23.02.2018 06:00:00 -2,0 -4,2 16 9 29 16 W 1025,3 10 0,1
23.02.2018 05:00:00 -2,2 -3,5 22 12 29 16 W 1025,5 6 0,4
23.02.2018 04:00:00 -2,2 -4,1 21 11 25 14 W 1026,1 3,1 0,3
23.02.2018 03:00:00 -2,3 -4,8 16 9 25 14 W 1026,6 5 0,2
23.02.2018 02:00:00 -2,1 -5,9 21 11 25 14 W 1027,1 10 0,0
23.02.2018 01:00:00 -2,2 -6,7 15 8 25 14 W 1027,3 10 0,0
23.02.2018 00:00:00 -2,0 -6,2 15 8 22 12 W 1027,7 10 0,0
22.02.2018 23:00:00 -3,5 -4,5 9 5 18 10 S 1028,1 10 0,0
22.02.2018 22:00:00 -4,3 -5,1 13 7 22 12 S 1028,6 3,0 0,4
22.02.2018 21:00:00 -4,0 -6,6 15 8 22 12 S 1028,8 7 0,2
22.02.2018 20:00:00 -3,7 -7,7 13 7 18 10 S 1029,0 10 0,0
22.02.2018 19:00:00 -3,5 -7,6 13 7 18 10 S 1029,2 10 0,0
22.02.2018 18:00:00 -3,5 -7,3 13 7 18 10 SSW 1029,2 10 0,0
22.02.2018 17:00:00 -3,2 -7,0 13 7 18 10 SSW 1029,3 10 0,0
22.02.2018 16:00:00 -2,9 -6,5 11 6 14 8 SSW 1029,7 10 0,0
22.02.2018 15:00:00 -2,8 -5,9 11 6 14 8 SW 1029,8 10 0,0
22.02.2018 14:00:00 -2,7 -6,9 9 5 14 8 S 1030,3 10 0,0
22.02.2018 13:00:00 -2,6 -7,3 9 5 18 10 S 1030,7 10 0,0
22.02.2018 12:00:00 -2,5 -7,6 13 7 22 12 S 1030,7 10 0,0
22.02.2018 11:00:00 -3,2 -7,5 13 7 18 10 SSE 1030,6 10 0,0
22.02.2018 10:00:00 -3,5 -7,1 11 6 14 8 SSE 1030,8 10 0,0
22.02.2018 09:00:00 -4,6 -6,9 11 6 14 8 SSE 1030,9 10 0,0
22.02.2018 08:00:00 -6,3 -8,3 9 5 11 6 SE 1030,6 10 0,0
22.02.2018 07:00:00 -8,0 -10,0 9 5 - - SE - 10 -
22.02.2018 06:00:00 -8,6 -9,9 9 5 11 6 SE 1030,0 10 0,0
22.02.2018 05:00:00 -11,1 -12,4 11 6 11 6 SE 1029,9 10 0,0
22.02.2018 04:00:00 -11,9 -13,3 9 5 11 6 SE 1029,9 10 0,0
22.02.2018 03:00:00 -11,3 -12,7 11 6 11 6 SE 1029,7 10 0,0
22.02.2018 02:00:00 -9,4 -10,9 13 7 11 6 SE 1029,6 10 0,0
22.02.2018 01:00:00 -8,1 -9,4 11 6 11 6 SE 1029,6 10 0,0
22.02.2018 00:00:00 -7,8 -8,9 11 6 11 6 SE 1029,5 10 0,0
21.02.2018 23:00:00 -7,0 -7,9 11 6 11 6 SE 1029,1 10 0,0
21.02.2018 22:00:00 -6,8 -7,6 11 6 14 8 SE 1028,9 9 0,2
21.02.2018 21:00:00 -6,9 -7,8 11 6 14 8 SE 1028,4 10 0,0
21.02.2018 20:00:00 -7,3 -7,8 11 6 14 8 ESE 1027,9 10 0,0
21.02.2018 19:00:00 -8,8 -9,5 5 3 7 4 ESE 1027,4 10 0,0
21.02.2018 18:00:00 -6,7 -7,5 5 3 7 4 E 1027,0 10 0,0
21.02.2018 17:00:00 -5,3 -7,0 8 4 11 6 ENE 1026,6 10 0,0
21.02.2018 16:00:00 -4,1 -6,6 9 5 11 6 ENE 1026,3 10 0,0
21.02.2018 15:00:00 -2,7 -7,2 5 3 11 6 N 1026,1 10 0,0
21.02.2018 14:00:00 -3,2 -7,3 9 5 14 8 N 1026,4 10 0,0
21.02.2018 13:00:00 -2,5 -6,0 4 2 14 8 - 1026,5 10 0,0
21.02.2018 12:00:00 -2,4 -5,2 0 0 4 2 N 1026,6 9 0,0
21.02.2018 11:00:00 -2,5 -5,0 4 2 4 2 SE 1026,5 7 0,1
21.02.2018 10:00:00 -3,7 -5,0 4 2 7 4 E 1026,6 2,5 0,4
21.02.2018 09:00:00 -4,3 -5,5 4 2 7 4 ESE 1026,4 2,0 0,4
21.02.2018 08:00:00 -4,6 -5,7 5 3 7 4 E 1026,0 2,5 0,4
21.02.2018 07:00:00 -4,7 -5,9 4 2 7 4 E 1025,9 9 0,2
21.02.2018 06:00:00 -4,9 -6,3 5 3 7 4 E 1026,0 8 0,0
21.02.2018 05:00:00 -4,7 -6,2 5 3 11 6 E 1026,3 10 0,0
21.02.2018 04:00:00 -4,5 -5,7 9 5 11 6 E 1026,2 10 0,0
21.02.2018 03:00:00 -4,6 -5,4 8 4 11 6 E 1026,6 10 0,1
21.02.2018 02:00:00 -4,1 -5,1 9 5 11 6 ENE 1026,6 3,0 0,2
21.02.2018 01:00:00 -3,9 -4,9 9 5 11 6 ENE 1026,8 8 0,0
21.02.2018 00:00:00 -3,9 -4,7 4 2 11 6 E 1026,9 10 0,0
20.02.2018 23:00:00 -3,5 -4,5 9 5 18 10 ENE 1026,8 10 0,0
20.02.2018 22:00:00 -3,0 -3,7 13 7 22 12 N 1026,9 6 0,1
20.02.2018 21:00:00 -3,6 -4,6 0 0 4 2 N 1027,0 10 0,0
20.02.2018 20:00:00 -3,3 -4,3 0 0 4 2 N 1027,2 10 0,0
20.02.2018 19:00:00 -3,2 -4,2 5 3 11 6 NE 1027,1 5 0,0
20.02.2018 18:00:00 -3,4 -4,5 4 2 7 4 E 1027,0 10 0,0
20.02.2018 17:00:00 -2,7 -4,4 4 2 14 8 ENE 1026,8 10 0,0
20.02.2018 16:00:00 -2,2 -4,1 13 7 14 8 NE 1026,9 5 0,0
20.02.2018 15:00:00 -1,5 -4,0 9 5 18 10 NE 1027,0 10 0,0
20.02.2018 14:00:00 -1,0 -4,3 13 7 18 10 NNE 1026,9 10 0,0
20.02.2018 13:00:00 -0,7 -4,1 5 3 14 8 NE 1027,2 10 0,0
20.02.2018 12:00:00 -1,6 -3,8 9 5 14 8 NE 1027,3 10 0,0
20.02.2018 11:00:00 -1,8 -4,1 5 3 14 8 NE 1027,3 9 0,0
20.02.2018 10:00:00 -2,1 -4,0 8 4 14 8 NE 1027,2 5 0,1
20.02.2018 09:00:00 -2,2 -4,4 9 5 14 8 ENE 1027,1 10 0,0
20.02.2018 08:00:00 -2,1 -5,4 5 3 7 4 NE 1026,8 10 0,0
20.02.2018 07:00:00 -2,2 -5,3 11 6 14 8 E 1026,7 10 0,0
20.02.2018 06:00:00 -2,2 -5,2 9 5 11 6 ENE 1026,8 10 0,0
20.02.2018 05:00:00 -2,2 -5,3 8 4 11 6 NE 1026,8 10 0,0
20.02.2018 04:00:00 -2,0 -5,3 11 6 18 10 ENE 1026,8 10 0,0
20.02.2018 03:00:00 -2,1 -5,2 15 8 22 12 NE 1026,8 10 0,0
20.02.2018 02:00:00 -2,1 -4,9 15 8 22 12 ENE 1026,6 10 0,0
20.02.2018 01:00:00 -2,0 -4,5 18 10 25 14 ENE 1026,4 10 0,0
20.02.2018 00:00:00 -2,0 -4,2 18 10 25 14 ENE 1026,5 10 0,0
19.02.2018 23:00:00 -1,8 -3,8 15 8 22 12 ENE 1026,3 10 0,0
19.02.2018 22:00:00 -1,7 -3,4 18 10 25 14 ENE 1026,0 10 0,0
19.02.2018 21:00:00 -1,5 -3,4 18 10 25 14 ENE 1025,8 10 0,0
19.02.2018 20:00:00 -1,3 -2,7 16 9 22 12 E 1025,6 9 0,0
19.02.2018 19:00:00 -1,3 -2,7 18 10 29 16 E 1025,3 8 0,0
19.02.2018 18:00:00 -0,9 -2,0 21 11 29 16 E 1024,9 6 0,0
19.02.2018 17:00:00 -0,3 -1,1 24 13 29 16 E 1024,4 7 0,1
19.02.2018 16:00:00 0,3 -0,4 16 9 22 12 E 1023,8 6 0,0
19.02.2018 15:00:00 0,9 0,0 9 5 11 6 E 1023,7 10 0,0
19.02.2018 14:00:00 0,7 0,0 7 4 14 8 E 1023,3 9 0,0
19.02.2018 13:00:00 1,7 -0,4 5 3 7 4 SE 1023,1 10 0,0
19.02.2018 12:00:00 1,4 0,2 8 4 11 6 ESE 1023,1 8 0,0
19.02.2018 11:00:00 1,0 0,1 9 5 11 6 SSE 1022,7 7 0,0
19.02.2018 10:00:00 0,1 -0,3 9 5 11 6 SSE 1022,4 5 0,0
19.02.2018 09:00:00 -0,3 -0,7 9 5 11 6 ESE 1022,3 4,0 0,0
19.02.2018 08:00:00 -0,5 -0,9 8 4 7 4 SE 1022,1 4,0 0,0
19.02.2018 07:00:00 -0,5 -0,9 8 4 7 4 SE 1021,9 4,5 0,2
19.02.2018 06:00:00 -0,4 -0,8 8 4 7 4 S 1021,7 2,4 0,1
19.02.2018 05:00:00 -0,6 -1,0 5 3 7 4 S 1021,7 5 0,0
19.02.2018 04:00:00 -0,7 -1,4 8 4 14 8 S 1021,9 10 0,0
19.02.2018 03:00:00 0,1 -0,5 8 4 14 8 SSW 1022,3 10 0,0
19.02.2018 02:00:00 0,1 -0,8 9 5 14 8 SSW 1022,7 9 0,0
19.02.2018 01:00:00 0,2 -1,2 9 5 22 12 WSW 1022,9 10 0,0
19.02.2018 00:00:00 1,0 -0,6 13 7 25 14 W 1023,0 10 0,0

tt = Température de l'air
td = dewpoint
ff = Vitesse du vent
fx = gusts
dd = Direction du vent
ppp = reduced air pressure
vv = visibility
rr = Quantités de précipitations

stations d'obs. à proximité